{"data":{"norad_id":69993,"intl_designator":"2026-159U","name":"STARLINK-38082","alt_names":[],"object_type":"PAYLOAD","status":"ACTIVE","operator":null,"country":"US","launch_date":"2026-07-11","launch_site_code":"AFWTR","launch_vehicle":null,"mission":null,"orbit_class":"UNKNOWN","rcs_meters":null,"size_class":null,"mass_kg":null,"dimensions":null,"purposes":["comms"],"wikipedia_slug":null,"has_3d_model":false,"image_url":null,"decayed_at":null,"tle_current":{"epoch":"2026-09-20T04:00:03.000096Z","epoch_age_seconds":46615,"freshness":"FRESH","line1":"1 69993U 26159U   26263.16670139 -.02887052  00000+0 -79201-1 0  9994","line2":"2 69993  97.2852 104.9862 0002617  64.4752 348.0645 15.40930877  5992","mean_motion":15.40930877,"eccentricity":0.0002617,"inclination_deg":97.2852,"raan_deg":104.9862,"arg_perigee_deg":64.4752,"mean_anomaly_deg":348.0645,"bstar":-0.079201,"rev_number":599,"period_min":93.450006193886,"perigee_km":441.57550183948,"apogee_km":445.14587372926,"semimajor_km":6821.4976877844,"source":"CELESTRAK","updated_at":"2026-09-20T09:00:44.331724Z"}}}